CAPE
82 141 248 255 59 87 125 129 159 154 176 100 35 87 14 55 25 81 17 3 47 156 95 358 903 1309 1656 1795 1768 1656 1606 1560 1652 1784 1988 1748 1719 1793 1722 1698 1728 1765 1602 1451 1507 1486 1562 1432 1391
355 227 350 273 223 132 117 162 200 228 156 66 36 33 54 3 21 5 83 1 55 90 388 634 914 1317 1501 1475 1381 1367 1414 1637 1857 1986 1744 1711 1605 1517 1442 1440 1330 1317 1368 1512 1620 1564 1337 1239 1095
293 327 136 93 46 117 105 208 234 223 45 36 22 61 123 35 32 35 19 6 191 206 386 582 862 1261 1340 1444 1420 1404 1485 1797 1894 1770 1714 1614 1570 1471 1543 1611 1599 1622 1421 1309 1326 1354 1328 1180 1094
628 633 329 147 150 180 191 206 151 80 24 22 48 66 9 36 50 131 39 142 107 250 528 678 1265 1323 1354 1492 1478 1563 1770 1887 1744 1692 1645 1545 1574 1623 1723 1417 1458 1646 1598 1527 1513 1375 1122 932 871
907 403 294 200 160 226 302 231 166 111 83 57 67 20 6 41 41 107 71 105 234 211 323 796 1316 1513 1537 1810 1651 1584 1750 1773 1778 1648 1571 1583 1611 1648 1693 1497 1751 1686 1405 1364 1407 1307 1031 1076 1118
651 327 137 115 144 178 350 250 164 92 47 16 7 8 54 81 82 85 148 139 209 155 75 504 1207 1530 1597 1859 1582 1445 1445 1537 1673 1657 1587 1566 1529 1493 1478 1600 1637 1644 1466 1257 1112 1087 990 944 1045
481 140 107 139 138 245 398 276 226 31 37 14 42 90 124 110 87 82 164 103 146 161 41 314 535 1134 1644 1712 1553 1607 1589 1542 1592 1673 1642 1472 1303 1266 1370 1278 1553 1390 1406 1445 1404 1188 1089 1144 1158
387 85 89 63 86 76 473 440 308 38 60 65 76 50 114 194 120 135 148 191 270 222 108 220 434 616 736 850 1479 1529 1577 1693 1731 1594 1451 1327 1064 1248 1279 1321 1055 1417 1304 1193 1221 1162 1018 947 1248
327 187 100 113 182 220 473 371 202 62 51 43 84 132 146 138 95 135 158 150 253 284 138 123 281 528 598 630 944 1244 1492 1659 1555 1295 1164 1071 1588 1699 1665 680 1347 1477 1407 1323 1311 1329 1214 853 1221
523 406 115 101 175 346 516 430 413 98 46 74 148 157 129 187 169 223 251 328 464 293 141 85 100 297 564 315 791 722 566 501 930 1313 1434 1702 1691 1735 1483 1272 1068 997 1125 959 1031 1182 1102 1385 1357
402 308 61 51 121 284 600 570 510 179 4 101 108 157 172 232 293 318 288 361 433 253 84 62 93 285 290 129 532 598 446 665 971 1562 1589 1490 1561 1760 1643 1437 1573 1621 1106 1684 1466 1403 1241 1193 1199
156 179 62 54 101 148 461 608 571 279 24 33 184 197 182 217 265 237 258 288 344 297 118 103 229 372 339 304 402 542 142 372 483 809 1237 1393 1422 1639 1849 1591 1588 1780 1664 1317 1479 1497 1381 1285 1301
41 162 164 127 107 93 197 480 645 443 150 106 232 208 207 213 237 223 209 182 253 302 211 320 447 620 565 608 349 472 241 96 119 582 848 978 1306 1617 1827 1572 1613 1497 1507 1220 1350 1194 1246 1089 1172
0 35 128 96 27 71 433 558 653 662 401 241 195 188 233 210 216 175 116 108 180 175 187 382 541 667 749 747 892 890 675 133 226 230 522 812 1113 1531 1600 1305 1444 1311 1547 1709 1355 1214 1272 1087 1124
0 0 9 0 0 138 379 558 574 777 589 392 318 219 211 241 246 219 109 112 107 81 94 220 473 657 971 1001 1127 982 377 158 24 8 311 675 1073 1521 1667 1616 1515 1296 1608 1126 1118 1051 948 582 38
0 0 0 0 0 66 190 135 474 759 707 614 447 256 207 241 242 210 132 79 35 50 91 234 339 503 998 1044 1036 551 218 34 0 3 359 763 1078 1550 2045 1709 1539 1714 1611 1125 754 797 722 278 19
0 0 0 3 8 46 120 131 246 659 721 776 568 401 183 202 192 203 146 93 47 41 69 231 401 373 679 958 908 632 278 147 0 140 498 930 1435 1745 2103 1632 1600 2213 1433 1436 1347 988 788 375 97
0 0 0 6 0 23 97 97 43 390 554 696 685 566 296 138 136 146 157 102 98 58 83 249 349 429 678 660 888 457 133 17 3 280 641 1258 1857 2075 2277 1884 1733 2081 1193 1091 1293 837 872 433 197
0 0 0 0 0 0 6 23 2 7 405 525 751 688 533 152 87 99 143 103 103 129 209 331 404 630 828 723 407 163 11 23 79 613 1191 1814 2098 2214 2464 1768 1954 1763 1193 951 1115 909 729 558 177
0 0 0 0 0 0 0 0 0 0 217 419 702 756 705 449 111 104 145 114 109 212 355 640 723 889 1147 736 399 47 16 0 242 758 1211 1880 1914 2228 2237 1690 1287 1763 1384 1034 1033 859 689 277 4
0 0 0 0 0 0 0 0 0 0 15 239 514 709 727 637 292 145 159 176 105 146 331 571 1053 1273 1304 759 530 340 94 247 443 780 1150 1701 1944 1954 2132 1736 1259 1736 1251 998 1215 1220 918 187 49
0 0 0 0 0 0 0 0 0 0 0 76 321 601 674 659 527 155 131 244 87 118 330 658 1219 1539 1607 1063 329 389 9 12 115 694 778 865 1484 1612 1747 1729 1627 1722 1368 1274 1366 1315 1035 591 6
0 0 0 0 0 0 0 0 0 0 0 45 215 513 582 622 579 359 110 65 133 281 498 726 1163 1566 1607 1519 760 583 288 0 297 776 1118 1495 1318 1725 1543 1671 1461 1831 2011 1581 1944 1477 1344 524 50
0 0 0 0 0 0 0 0 0 0 0 0 50 300 535 521 524 621 161 37 214 363 564 745 1249 1754 1750 1643 1392 1161 808 323 590 1106 1184 1305 1290 1242 1764 1592 1866 2086 2034 1958 2087 1823 1451 980 399
0 0 0 0 0 0 0 0 0 0 0 0 0 18 370 563 491 518 591 234 151 307 465 715 1204 1677 1729 1603 1509 1420 1258 1158 1154 1399 1325 1209 865 811 1087 1763 1697 1960 2263 1949 2123 2029 1312 1324 774
0 0 0 0 0 0 0 0 0 0 0 0 0 0 275 435 549 532 645 604 407 293 632 892 1224 1589 1702 1590 1579 1685 1718 1198 1078 1192 1058 1117 997 740 870 1315 1677 2036 1847 2227 2203 1967 1587 1093 1081
0 0 0 0 0 0 0 0 0 0 0 0 0 0 0 65 465 634 689 756 760 708 756 1125 1384 1638 1652 1567 1740 1698 1749 1478 1128 1320 1717 1347 1390 992 1093 1272 1641 1679 1905 2175 2245 1982 1805 1123 1192
0 0 0 0 0 0 0 0 0 0 0 0 0 0 0 0 94 462 711 754 835 865 915 1152 1494 1677 1428 1456 1751 1648 1776 1826 1666 1783 1714 1693 1645 1578 1134 1505 1444 1735 1919 2216 2345 1978 1893 1572 1028
0 0 0 0 0 0 0 0 0 0 0 0 0 0 0 0 14 451 622 676 826 904 886 1149 1455 1575 1572 1555 1628 1707 1688 1686 1881 1712 1912 1989 1975 2053 1910 1680 1544 1532 1954 2463 2532 2286 1788 1801 1278
0 0 0 0 0 0 0 0 0 0 0 0 0 0 0 0 0 93 331 560 639 749 860 870 1101 1333 1450 1520 1728 1631 1672 1720 1677 1827 1939 2078 2005 2219 2249 2119 1910 1655 1848 2420 2514 2335 1767 1852 1520
CIN
-107 -15 -2 0 -7 -30 -1 -1 -6 -2 -1 -9 -22 -11 -22 -50 -48 -8 -14 -16 -16 -2 -14 0 -1 0 0 0 0 -1 0 0 0 0 0 0 0 0 -2 -2 -2 -2 0 0 0 0 0 -1 -2
-30 -17 -1 -3 0 -2 -2 -2 -5 -2 -11 -13 -22 -13 -6 -19 -62 -75 -26 -1 -43 -14 0 -1 -3 0 0 0 -6 -4 0 0 0 0 0 0 0 0 0 0 -1 -3 -1 -1 0 0 -1 -7 -12
-22 -3 -28 -45 -23 -1 -2 -1 -1 -8 -13 -2 -9 -4 -1 -30 -45 -55 -68 -40 -15 -8 -1 -1 -3 -1 0 -1 -2 -2 -1 0 0 0 0 0 0 0 0 0 0 0 -1 -8 -4 -4 -8 -16 -15
0 0 -7 -31 -2 -1 -2 -4 -3 -2 -6 -32 -8 -2 -55 -44 -35 -18 -74 -22 -24 -2 -1 -3 -1 0 -3 0 -1 -1 0 0 0 0 0 0 0 0 0 0 0 0 0 0 -5 -13 -17 -26 -21
-1 -19 -2 -9 -1 -2 -2 -6 -5 -3 -5 -23 -17 -55 0 -59 -89 -36 -54 -29 -2 -6 -4 -1 0 0 0 0 0 -1 0 0 0 0 0 0 0 0 0 0 0 0 -1 -9 -12 -13 -15 -21 -18
-3 -36 -8 -3 -1 -5 -7 -5 -3 -3 -38 -21 -4 -1 -42 -33 -54 -22 -9 -8 -1 -16 -7 -3 -1 0 0 0 -1 -7 0 -1 0 0 0 0 0 -1 -4 -1 0 -1 -8 -18 -23 -21 -22 -29 -19
-5 -53 -5 -7 -1 -2 -4 -3 -3 -6 -22 -31 -58 -41 -63 -54 -33 -49 -12 -31 -15 -11 -8 -7 -8 -2 0 0 -1 0 -1 -4 0 0 0 -5 -12 -12 -8 -15 -7 -12 -15 -12 -11 -16 -20 -23 -26
-20 -62 -4 -2 -2 -1 -7 -1 -8 -19 -20 -60 -46 -74 -107 -77 -74 -34 -27 -8 -2 -4 -13 -11 -8 -7 -8 -14 -2 -3 -3 0 0 -4 -11 -20 -24 -20 -15 -19 -31 -16 -19 -25 -18 -19 -27 -40 -27
-27 -3 -6 -2 -2 -6 -9 -5 -21 -43 -67 -58 -44 -50 -84 -105 -103 -63 -41 -19 -5 -5 -14 -15 -16 -8 -4 -4 -14 -18 -8 -2 -10 -20 -31 -31 -1 -1 -2 -35 -23 -15 -22 -33 -31 -25 -21 -43 -33
-29 -4 -2 -18 -27 -2 -3 -2 -17 -19 -42 -54 -53 -66 -91 -86 -85 -52 -51 -27 -9 -17 -18 -13 -14 -14 -11 -8 -12 -11 -12 -12 -4 -1 0 0 -1 0 -1 -11 -31 -33 -36 -42 -38 -33 -27 -26 -5
-59 -6 -26 -28 -23 -10 -3 -2 -8 -8 -5 -31 -53 -92 -97 -75 -62 -30 -30 -17 -13 -25 -32 -17 -25 -18 -27 -31 -13 -5 -13 -2 -4 -5 -2 -1 0 -1 0 -1 -2 0 -16 -3 -7 -6 0 -1 0
-54 -60 -52 -33 -36 -31 -2 -2 -6 -8 -10 -27 -72 -102 -107 -83 -71 -49 -37 -20 -13 -22 -33 -21 -27 -30 -36 -33 -27 -5 -26 -22 -13 -5 -19 -4 -3 -1 -1 0 0 -2 0 -4 -1 -1 -2 -1 0
-95 -27 -38 -48 -36 -30 -16 -8 -3 -8 -29 -49 -81 -111 -88 -64 -56 -51 -33 -31 -27 -33 -34 -17 -21 -26 -36 -40 -23 -6 -23 -56 -41 -18 -16 -3 -1 -2 0 -2 0 0 -3 -1 -4 -6 -1 -1 -1
0 -67 -37 -34 -38 -24 -9 -16 -12 -11 -49 -64 -105 -114 -101 -62 -63 -62 -60 -50 -42 -51 -52 -25 -26 -29 -31 -31 -25 -11 -11 -46 -43 -29 -13 -26 -5 0 -1 -7 -2 0 -1 -1 -3 -1 -2 -6 -6
0 -6 -58 -2 0 -20 -15 -11 -23 -28 -68 -70 -99 -112 -98 -58 -65 -81 -91 -76 -74 -86 -71 -57 -42 -28 -21 -24 -23 -17 -24 -48 -65 -72 -42 -37 -22 -3 -3 0 -1 0 0 -3 -1 -1 -1 -5 -29
0 0 0 0 0 -29 -22 -9 -13 -43 -52 -71 -92 -118 -123 -90 -83 -88 -92 -89 -91 -79 -82 -64 -44 -33 -20 -20 -25 -45 -59 -68 0 -9 -15 -32 -27 -20 -1 -1 0 0 -2 -10 -9 -6 -10 -21 -28
0 0 0 0 -15 -27 -25 -2 -6 -36 -53 -54 -85 -97 -123 -124 -107 -119 -99 -113 -105 -104 -94 -75 -50 -53 -42 -35 -33 -49 -80 -96 0 -51 -13 -12 -14 -7 -4 -1 0 -3 -1 -1 -2 -5 -1 -3 -25
0 0 0 -4 0 -50 -25 -3 -10 -14 -33 -33 -73 -85 -112 -128 -127 -115 -99 -106 -112 -121 -95 -79 -65 -62 -54 -56 -43 -65 -103 -150 -115 -35 -7 -6 -13 -5 -3 -2 -9 -10 -6 0 -1 -7 -2 -3 -5
0 0 0 0 -1 0 -29 -1 -17 -26 -44 -34 -67 -64 -77 -97 -103 -121 -118 -102 -100 -88 -89 -97 -90 -74 -58 -80 -109 -138 -185 -139 -105 -22 -6 -3 -9 -8 -3 -2 -14 -11 -1 -1 -1 0 -7 -1 -16
0 0 0 0 0 0 0 0 0 0 -48 -43 -44 -67 -66 -68 -100 -134 -136 -142 -134 -127 -117 -91 -87 -61 -57 -97 -127 -161 -169 0 -80 -11 -2 -5 -7 -10 -7 -6 -2 -9 -1 -4 -1 -2 -2 -2 -15
0 0 0 0 0 0 0 0 0 0 -36 -39 -35 -44 -45 -50 -71 -121 -132 -142 -158 -141 -136 -119 -77 -51 -46 -88 -108 -127 -167 -119 -71 -18 -1 -1 -5 -6 -9 -2 -6 -8 -8 -2 -1 0 -3 -4 -58
0 0 0 0 0 0 0 0 0 0 -19 -47 -49 -49 -53 -62 -65 -110 -143 -138 -190 -182 -163 -136 -73 -37 -33 -71 -131 -143 -20 -52 -123 -37 -12 -4 -1 -3 0 0 -6 -4 -2 0 -1 -1 -2 -10 -18
0 0 0 0 0 0 0 0 0 0 0 -50 -41 -46 -50 -66 -67 -73 -129 -181 -172 -147 -140 -141 -109 -60 -50 -61 -118 -138 -153 0 -80 -21 -2 -6 -1 -8 -2 0 -1 0 -1 -1 -3 -4 -12 -3 -10
0 0 0 0 0 0 0 0 0 0 0 0 -45 -46 -49 -53 -66 -57 -86 -169 -149 -124 -116 -124 -122 -101 -73 -79 -109 -105 -120 -139 -74 -26 -2 -2 -2 -2 -4 -1 -1 -1 0 -1 -1 -1 -11 -12 -26
0 0 0 0 0 0 0 0 0 0 0 0 0 -13 -38 -61 -61 -67 -70 -123 -164 -162 -141 -129 -146 -143 -128 -121 -124 -136 -127 -102 -69 -29 -18 -5 -13 -8 -1 -3 -2 -1 -1 -2 -2 -2 -16 -18 -39
0 0 0 0 0 0 0 0 0 0 0 0 0 0 -25 -39 -62 -59 -78 -95 -110 -148 -135 -131 -145 -164 -150 -155 -165 -148 -114 -101 -90 -56 -45 -32 -17 -20 -20 -13 -9 -4 -2 -4 -3 -5 -27 -49 -51
0 0 0 0 0 0 0 0 0 0 0 0 0 0 0 -101 -56 -77 -77 -91 -107 -122 -159 -161 -155 -192 -178 -173 -172 -160 -148 -124 -114 -81 -52 -39 -18 -20 -20 -22 -16 -20 -13 -7 -3 -8 -31 -69 -75
0 0 0 0 0 0 0 0 0 0 0 0 0 0 0 0 -77 -57 -69 -98 -117 -136 -168 -174 -192 -203 -228 -204 -184 -173 -161 -145 -127 -73 -74 -47 -35 -37 -27 -31 -33 -16 -15 -11 -8 -7 -17 -51 -94
0 0 0 0 0 0 0 0 0 0 0 0 0 0 0 0 -35 -45 -76 -121 -126 -137 -165 -196 -216 -233 -241 -225 -210 -180 -168 -159 -146 -120 -94 -84 -62 -37 -38 -34 -47 -40 -10 -5 -7 -15 -21 -43 -86
0 0 0 0 0 0 0 0 0 0 0 0 0 0 0 0 0 -44 -47 -88 -118 -161 -181 -218 -260 -251 -259 -262 -242 -231 -203 -173 -151 -155 -124 -105 -96 -75 -50 -40 -45 -59 -39 -3 -12 -31 -47 -51 -82
Wind_Speed
19 17 14 14 12 14 16 15 11 14 12 11 13 14 6 9 12 16 31 8 10 24 35 30 31 32 29 28 31 30 32 32 31 30 26 8 6 3 4 4 4 5 9 10 25 24 24 23 23
19 18 16 16 15 14 14 13 14 11 8 5 9 14 11 10 14 22 23 34 28 27 27 28 29 29 27 30 31 32 32 31 30 23 12 8 4 4 4 5 5 8 7 6 22 23 23 22 23
20 17 15 18 17 11 13 12 11 10 8 14 10 9 12 10 18 26 20 35 31 25 29 28 29 26 29 28 29 32 31 28 21 17 12 9 6 5 6 6 9 14 21 23 23 21 21 21 22
18 16 17 15 12 13 13 10 12 15 9 13 7 12 8 7 20 16 33 34 27 24 27 30 25 26 27 27 28 31 27 21 14 14 12 11 10 9 7 6 11 17 20 22 22 22 22 21 21
15 16 15 13 12 13 13 11 11 11 11 11 11 10 8 5 13 29 32 32 27 27 26 29 25 24 22 28 20 25 21 10 15 14 16 16 14 12 8 7 13 14 15 21 21 20 21 21 21
13 16 16 12 13 12 13 12 11 12 13 11 11 15 4 20 26 30 33 32 28 26 29 27 27 20 25 22 27 25 25 12 12 17 17 17 17 16 12 12 12 13 15 17 18 19 18 20 21
18 19 17 14 13 11 11 11 11 11 14 14 15 16 9 24 27 31 33 31 28 26 26 32 30 25 25 27 27 26 18 15 19 20 19 17 16 15 14 14 13 15 15 16 16 18 18 18 21
15 17 16 9 12 11 8 9 11 13 11 13 12 14 20 24 30 31 32 31 28 28 28 33 33 32 31 30 27 24 22 21 20 20 19 18 19 17 17 18 15 15 15 15 16 18 17 18 21
12 9 10 9 11 11 6 8 10 9 12 8 8 7 13 26 28 30 31 30 29 32 33 34 34 33 30 29 28 25 23 22 21 21 20 20 17 16 16 11 14 16 16 15 15 17 18 19 20
6 13 8 11 10 8 8 10 15 14 15 13 9 6 19 25 24 29 29 30 34 36 35 35 35 33 31 29 27 25 24 24 22 20 19 17 15 14 14 16 16 16 15 14 15 15 17 16 19
5 10 8 9 19 16 16 14 14 14 14 11 11 15 23 22 26 29 30 30 36 37 37 36 35 33 32 28 27 26 25 23 22 21 19 17 16 16 16 16 18 18 17 15 16 15 13 15 17
9 4 18 13 11 13 17 13 14 15 12 8 8 17 23 25 27 32 32 35 36 38 37 36 35 34 32 29 28 26 25 24 23 22 20 18 18 17 15 15 15 16 15 16 14 17 16 15 17
18 22 23 24 22 20 14 17 13 13 11 10 11 17 23 25 25 32 34 38 38 38 38 37 36 34 33 30 28 26 25 25 23 22 21 19 18 17 15 14 16 14 15 15 16 15 14 14 17
9 32 26 25 24 19 11 12 13 12 10 13 15 17 21 26 28 34 38 40 39 39 38 37 36 35 33 32 29 27 26 25 24 23 21 21 19 18 16 16 16 14 13 12 13 13 14 14 15
29 22 19 20 5 5 8 8 14 10 11 13 15 16 19 30 34 36 41 40 40 39 38 37 36 35 34 33 31 29 27 26 25 24 22 21 21 19 17 16 15 14 13 13 14 14 14 15 15
19 18 10 6 1 3 5 5 10 14 14 15 15 15 20 28 35 38 40 40 41 39 39 38 36 36 35 33 32 30 28 27 26 25 23 23 22 20 18 16 15 13 13 13 13 13 13 15 13
14 12 7 5 5 2 2 6 5 17 16 17 18 17 21 30 37 37 40 42 41 40 39 38 37 36 35 34 32 31 29 28 26 26 25 23 23 20 19 17 15 13 13 14 13 13 13 14 14
14 20 12 8 4 4 3 24 14 16 18 17 18 16 23 32 35 38 42 42 41 40 39 37 37 37 35 34 33 31 30 29 28 27 25 24 23 21 19 17 16 14 13 13 13 13 13 12 12
33 27 29 13 8 8 8 32 28 8 20 20 18 19 28 34 34 38 42 43 41 39 37 37 37 36 35 34 34 33 32 30 29 28 26 24 22 20 17 17 12 13 12 12 13 13 13 13 14
39 33 38 24 15 20 26 33 27 5 18 25 18 21 32 36 37 41 42 42 41 40 39 38 38 37 37 35 33 32 31 29 27 26 25 24 22 19 18 15 15 14 12 13 13 13 13 13 15
27 34 38 34 22 28 29 35 27 14 3 28 27 21 30 38 38 40 42 43 42 41 41 40 40 38 38 37 35 34 32 31 24 25 23 21 21 18 16 13 12 13 14 12 13 13 13 14 15
21 32 38 36 32 33 17 36 31 14 6 22 33 33 24 33 38 40 40 41 41 40 42 42 40 38 37 37 36 32 28 26 25 23 22 22 20 20 16 13 11 14 15 14 13 14 14 14 15
46 27 30 39 42 41 43 37 38 15 34 21 36 34 36 20 33 43 40 39 40 39 41 42 42 41 38 35 37 30 32 28 25 24 20 18 18 18 18 16 14 15 15 13 16 15 15 15 15
27 31 29 32 40 51 44 43 42 40 36 39 40 39 38 30 27 38 41 38 36 37 40 42 41 40 38 33 33 33 30 31 25 20 20 21 16 14 15 19 20 19 16 14 17 17 15 16 16
19 22 18 38 50 51 41 47 43 31 39 25 40 40 42 40 26 26 35 35 34 39 41 42 40 39 36 33 29 28 26 24 24 15 15 18 14 13 11 15 19 20 17 15 20 17 16 16 15
26 26 24 40 33 45 36 46 45 42 39 23 41 33 29 43 42 33 36 39 41 40 40 42 39 37 32 29 27 22 20 21 21 20 20 15 16 13 9 10 18 20 18 18 21 18 16 16 16
20 42 34 36 32 33 38 42 39 31 33 39 29 22 29 28 43 39 39 40 43 41 38 36 35 32 30 29 24 23 21 22 19 18 10 19 11 13 8 9 15 17 17 17 23 22 17 15 15
29 21 25 44 43 42 35 38 36 24 26 31 33 24 20 33 41 44 42 41 41 37 36 34 32 29 28 27 24 23 21 19 19 14 16 14 12 13 8 9 13 13 15 17 19 22 16 16 14
30 28 29 33 41 38 37 35 35 31 25 24 27 21 14 33 31 37 36 41 42 39 28 30 29 30 28 25 27 26 24 23 20 20 17 17 13 12 12 9 10 12 13 15 16 21 14 11 11
32 31 25 32 35 47 37 32 13 17 20 19 22 25 25 30 31 30 29 31 30 16 22 25 28 30 28 25 26 26 24 24 25 25 22 18 19 15 13 11 11 14 14 15 17 16 13 12 10
Wind_Direction
94 95 81 85 331 63 34 19 291 22 10 255 90 215 346 253 222 63 119 154 124 102 123 109 110 110 101 97 105 104 112 120 118 124 140 191 206 264 281 253 250 224 184 2 103 107 91 83 85
98 89 204 253 253 9 16 359 18 332 327 291 237 206 130 250 206 97 107 126 116 109 107 107 108 104 98 104 106 113 123 119 130 152 184 197 233 269 279 254 234 199 224 232 73 105 94 78 85
110 134 188 183 204 284 349 326 339 358 10 219 254 251 235 262 79 109 120 126 122 108 114 107 107 101 106 103 104 126 132 146 166 177 190 201 229 236 224 233 200 170 123 102 100 114 78 70 74
112 141 162 223 354 6 335 337 22 50 350 242 350 31 284 271 93 98 122 128 116 108 109 114 103 104 103 101 102 133 154 171 186 187 194 198 201 203 218 227 186 153 132 116 106 107 102 99 87
150 153 241 277 349 355 326 27 30 344 345 37 47 31 30 136 88 115 122 125 118 114 111 114 106 103 95 108 90 167 176 202 189 191 180 179 183 188 207 215 170 162 160 124 126 128 122 114 95
197 203 285 315 345 349 3 36 14 347 27 26 46 74 2 111 113 120 127 127 120 117 120 116 114 99 107 181 164 167 162 201 205 184 180 175 169 170 185 183 176 170 157 149 140 133 135 120 106
240 244 285 295 355 350 19 32 350 19 51 51 73 74 72 110 120 124 130 127 123 121 119 131 128 115 177 171 167 164 187 196 180 172 172 175 177 177 180 177 179 168 161 156 149 137 133 129 105
329 295 274 332 2 10 17 357 8 46 22 67 63 78 109 120 125 127 131 130 127 127 128 141 144 147 158 161 167 172 179 180 180 177 175 173 164 167 165 155 168 167 166 158 146 134 130 126 110
358 315 300 349 24 30 2 357 0 351 64 29 4 50 111 124 125 128 131 131 132 140 144 148 154 161 170 167 169 176 179 178 177 172 174 166 176 178 168 196 183 170 164 161 151 131 124 119 109
8 288 332 15 340 7 43 28 66 64 89 76 29 54 116 128 127 133 135 137 147 151 153 158 163 167 173 174 178 180 178 175 180 184 184 185 198 202 195 174 167 167 173 166 159 146 127 128 113
2 300 5 130 210 232 91 81 57 63 92 90 82 104 126 131 136 140 141 143 155 158 164 165 172 174 176 186 184 184 185 187 185 186 194 199 198 195 192 175 145 134 131 141 130 129 147 126 98
293 328 246 255 53 85 124 78 86 84 27 67 85 119 131 137 141 149 150 155 160 165 171 173 175 179 181 190 189 191 192 193 190 187 193 200 191 186 189 195 182 154 132 104 115 83 94 104 95
161 242 222 194 207 191 116 129 96 93 29 67 93 123 137 141 144 153 158 168 173 174 175 178 178 182 185 193 196 198 197 197 204 201 198 204 198 195 196 222 178 176 127 124 80 89 96 95 62
276 216 232 238 217 180 96 98 102 93 65 85 102 125 140 147 150 160 172 183 183 182 180 179 179 180 188 191 199 200 200 204 205 204 204 202 204 199 204 184 172 163 189 273 277 100 99 87 64
243 258 265 264 306 342 85 83 125 90 94 104 113 121 140 157 163 170 185 196 190 189 184 182 182 182 187 195 200 203 204 202 203 203 205 204 200 191 200 178 179 181 165 140 101 93 84 69 53
258 265 273 265 167 353 106 45 121 119 119 121 124 127 138 157 171 178 184 198 193 192 187 185 187 185 190 196 201 203 205 207 206 206 206 204 205 200 191 179 176 204 134 127 116 108 110 76 91
249 249 192 266 157 323 133 330 53 135 137 137 140 138 146 164 182 177 183 195 193 191 186 184 188 191 187 192 198 199 203 206 209 209 205 201 200 191 192 189 189 164 160 99 100 120 106 83 82
238 245 250 242 194 233 150 207 291 148 159 154 154 149 156 173 178 180 193 194 191 186 187 185 186 190 189 193 199 206 209 209 209 205 205 212 204 196 184 187 184 168 85 105 95 115 115 122 104
238 247 244 253 273 263 183 229 246 137 170 166 159 160 171 183 180 185 196 194 187 185 180 181 183 183 183 186 196 202 202 205 205 201 203 208 198 188 174 180 131 155 126 113 98 100 127 111 92
236 243 235 255 267 272 256 231 261 291 171 175 163 166 181 190 192 196 190 188 186 185 185 184 186 186 187 188 190 195 195 193 188 188 196 195 191 176 175 167 168 141 127 107 110 115 127 117 114
245 244 236 244 264 261 263 227 239 284 250 183 183 175 184 192 190 190 188 187 185 185 186 186 189 189 193 198 195 201 214 213 181 186 184 178 181 174 173 165 146 146 152 118 116 125 141 134 113
225 243 243 246 250 250 267 222 203 193 220 180 192 189 174 182 187 192 187 186 185 185 189 190 190 189 191 191 195 187 180 180 184 181 183 186 182 184 177 167 145 152 157 147 138 146 151 136 118
217 250 252 248 245 250 232 237 224 269 201 181 201 192 191 174 178 194 186 184 184 183 187 192 193 194 193 186 196 184 192 188 187 186 181 177 179 181 183 176 161 156 155 133 161 143 138 125 142
249 246 253 255 250 235 217 222 228 220 217 226 223 209 195 183 177 186 191 183 182 182 186 190 190 192 189 184 186 191 188 192 184 177 180 185 176 173 179 182 181 172 160 147 156 149 134 140 139
189 177 244 245 234 223 238 225 218 248 240 245 226 217 210 193 179 178 182 181 181 186 189 191 190 190 187 187 186 187 188 186 188 178 178 184 173 172 168 170 172 171 163 154 167 151 144 138 127
188 185 185 232 251 230 249 233 224 244 243 264 228 240 241 213 199 181 183 187 189 189 189 193 191 191 188 189 191 192 194 193 193 192 192 184 184 174 158 160 170 171 167 166 168 160 150 142 143
207 195 191 236 247 254 245 235 247 259 254 246 251 253 245 243 197 189 188 190 195 192 190 188 189 191 192 193 196 197 199 199 197 196 206 194 186 179 168 167 172 172 169 167 175 178 160 151 146
244 228 209 206 214 233 246 241 249 265 252 249 245 190 248 239 225 202 198 194 194 191 191 189 189 190 192 196 198 201 204 205 206 216 205 200 196 190 186 177 178 179 176 176 174 181 168 165 157
229 239 222 235 210 226 238 247 247 258 257 250 250 242 204 240 236 233 235 225 204 198 189 192 193 194 194 194 195 196 199 203 207 208 214 208 211 205 199 203 193 192 189 182 180 184 175 172 169
236 237 222 242 195 218 230 235 280 280 267 254 253 250 247 240 241 243 246 245 247 233 194 195 195 197 198 197 195 194 194 196 198 199 200 204 203 209 214 216 212 199 200 192 189 191 192 193 192